Location: Saratoga Springs
(43.0831°N, 73.7850°W)
Time: 16:13:51
(UTC-04:00)

Tiros 1 despin weight - Pass Details

Date: 16 April 2024
Orbit: 578 x 620 km, 48.2° (Epoch: 29 May)

Event Time Altitude Azimuth Distance (km) Brightness Sun altitude
Rises 18:20:19 0° 286° (WNW) 2,870 ? 13.5°
Reaches altitude 10° 18:22:41 10° 293° (WNW) 1,972 ? 13.0°
Maximum altitude 18:27:03 45° 7° (N) 843 ? 12.2°
Drops below altitude 10° 18:31:27 10° 81° (E) 1,986 ? 11.4°
Sets 18:33:51 0° 87° (E) 2,893 ? 11.0°
